�������l�o���
Date,Time,MP-1(��Sv/h),MP-2(��Sv/h),MP-3(��Sv/h),MP-4(��Sv/h),MP-5(��Sv/h),MP-6(��Sv/h),MP-7(��Sv/h),MP-8(��Sv/h),����,����(m/s),���J
2023/07/04,00:00,0.534,0.810,0.493,0.965,0.709,0.325,0.566,0.532,�k,3.7,��
2023/07/04,00:10,0.535,0.810,0.491,0.965,0.709,0.327,0.566,0.534,�k�k��,3.5,��
2023/07/04,00:20,0.532,0.810,0.493,0.965,0.710,0.324,0.567,0.533,�k�k��,4.3,��
2023/07/04,00:30,0.532,0.808,0.492,0.965,0.710,0.326,0.566,0.531,�k,3.8,��
2023/07/04,00:40,0.532,0.811,0.492,0.965,0.710,0.326,0.567,0.532,�k,2.6,��
2023/07/04,00:50,0.533,0.809,0.493,0.965,0.709,0.325,0.567,0.532,�k,1.9,��
2023/07/04,01:00,0.534,0.809,0.492,0.965,0.710,0.328,0.567,0.532,�k�k��,2.3,��
2023/07/04,01:10,0.533,0.811,0.494,0.963,0.709,0.326,0.567,0.533,�k,3.2,��
2023/07/04,01:20,0.534,0.810,0.493,0.967,0.708,0.327,0.567,0.535,�k�k��,4.2,��
2023/07/04,01:30,0.534,0.812,0.493,0.965,0.709,0.325,0.568,0.534,�k�k��,5.2,��
2023/07/04,01:40,0.534,0.810,0.490,0.964,0.711,0.325,0.568,0.533,�k,5.5,��
2023/07/04,01:50,0.534,0.809,0.493,0.965,0.708,0.325,0.566,0.533,�k,5.5,��
2023/07/04,02:00,0.532,0.811,0.493,0.962,0.708,0.325,0.568,0.533,�k,5.8,��
2023/07/04,02:10,0.531,0.809,0.493,0.967,0.709,0.326,0.566,0.533,�k�k��,5.7,��
2023/07/04,02:20,0.532,0.809,0.493,0.965,0.708,0.325,0.567,0.534,�k�k��,5.2,��
2023/07/04,02:30,0.532,0.810,0.493,0.967,0.709,0.326,0.567,0.533,�k�k��,6.3,��
2023/07/04,02:40,0.533,0.809,0.492,0.964,0.709,0.327,0.570,0.533,�k�k��,5.6,��
2023/07/04,02:50,0.534,0.810,0.491,0.964,0.709,0.325,0.566,0.533,�k�k��,5.6,��
2023/07/04,03:00,0.534,0.807,0.493,0.965,0.710,0.324,0.567,0.534,�k�k��,5.9,��
2023/07/04,03:10,0.532,0.808,0.492,0.964,0.709,0.326,0.568,0.533,�k�k��,5.8,��
2023/07/04,03:20,0.532,0.809,0.492,0.966,0.708,0.324,0.566,0.532,�k�k��,6.6,��
2023/07/04,03:30,0.534,0.809,0.491,0.965,0.709,0.325,0.567,0.534,�k�k��,7.0,��
2023/07/04,03:40,0.533,0.810,0.493,0.964,0.710,0.325,0.568,0.532,�k�k��,5.9,��
2023/07/04,03:50,0.532,0.810,0.490,0.963,0.709,0.326,0.566,0.532,�k�k��,6.0,��
2023/07/04,04:00,0.533,0.807,0.492,0.965,0.708,0.326,0.567,0.535,�k�k��,6.3,��
2023/07/04,04:10,0.532,0.809,0.491,0.964,0.707,0.325,0.568,0.532,�k�k��,6.3,��
2023/07/04,04:20,0.531,0.807,0.492,0.964,0.709,0.325,0.568,0.534,�k�k��,7.0,��
2023/07/04,04:30,0.533,0.809,0.491,0.964,0.710,0.326,0.569,0.534,�k�k��,6.3,��
2023/07/04,04:40,0.533,0.808,0.491,0.966,0.708,0.326,0.567,0.534,�k�k��,6.5,��
2023/07/04,04:50,0.532,0.807,0.492,0.963,0.710,0.325,0.567,0.533,�k�k��,6.3,��
2023/07/04,05:00,0.531,0.809,0.491,0.964,0.709,0.326,0.567,0.534,�k�k��,5.9,��
2023/07/04,05:10,0.532,0.809,0.492,0.965,0.709,0.325,0.566,0.533,�k�k��,6.2,��
2023/07/04,05:20,0.533,0.809,0.492,0.963,0.708,0.325,0.566,0.533,�k�k��,6.3,��
2023/07/04,05:30,0.532,0.807,0.491,0.964,0.708,0.326,0.569,0.533,�k�k��,5.8,��
2023/07/04,05:40,0.532,0.806,0.492,0.966,0.709,0.326,0.566,0.534,�k�k��,6.0,��
2023/07/04,05:50,0.533,0.810,0.490,0.966,0.708,0.324,0.569,0.533,�k�k��,5.8,��
2023/07/04,06:00,0.532,0.809,0.491,0.963,0.709,0.325,0.567,0.534,�k�k��,5.2,��
2023/07/04,06:10,0.531,0.809,0.490,0.964,0.708,0.324,0.566,0.534,�k�k��,5.8,��
2023/07/04,06:20,0.533,0.808,0.491,0.965,0.709,0.323,0.567,0.534,�k�k��,5.1,��
2023/07/04,06:30,0.530,0.808,0.490,0.965,0.709,0.324,0.566,0.533,�k�k��,5.8,��
2023/07/04,06:40,0.531,0.807,0.492,0.965,0.708,0.324,0.567,0.533,�k�k��,6.6,��
2023/07/04,06:50,0.531,0.810,0.492,0.963,0.706,0.322,0.567,0.534,�k,6.3,��
2023/07/04,07:00,0.532,0.808,0.490,0.964,0.707,0.324,0.566,0.534,�k�k��,5.6,��
2023/07/04,07:10,0.530,0.805,0.491,0.964,0.708,0.324,0.568,0.533,�k,5.1,��
2023/07/04,07:20,0.530,0.806,0.489,0.964,0.708,0.324,0.568,0.534,�k,6.4,��
2023/07/04,07:30,0.532,0.806,0.489,0.965,0.706,0.323,0.565,0.533,�k,7.3,��
2023/07/04,07:40,0.534,0.807,0.490,0.967,0.709,0.323,0.564,0.535,�k�k��,6.3,��
2023/07/04,07:50,0.530,0.806,0.491,0.965,0.708,0.324,0.564,0.531,�k�k��,5.9,��
2023/07/04,08:00,0.532,0.808,0.492,0.965,0.707,0.325,0.565,0.533,�k�k��,5.8,��
2023/07/04,08:10,0.531,0.807,0.490,0.963,0.707,0.324,0.565,0.531,�k��,5.6,��
2023/07/04,08:20,0.531,0.806,0.490,0.964,0.705,0.323,0.565,0.532,�k��,6.4,��
2023/07/04,08:30,0.530,0.807,0.490,0.962,0.707,0.324,0.565,0.532,�k�k��,5.8,�L
2023/07/04,08:40,0.533,0.805,0.489,0.966,0.708,0.323,0.564,0.532,�k��,6.2,�L
2023/07/04,08:50,0.530,0.805,0.491,0.965,0.708,0.323,0.563,0.532,�k��,5.6,�L
2023/07/04,09:00,0.531,0.805,0.489,0.965,0.708,0.323,0.566,0.534,�k��,5.3,�L
2023/07/04,09:10,0.530,0.807,0.491,0.965,0.708,0.325,0.563,0.532,�k�k��,5.7,�L
2023/07/04,09:20,0.530,0.806,0.488,0.964,0.706,0.323,0.564,0.532,�k��,5.6,�L
2023/07/04,09:30,0.530,0.807,0.489,0.965,0.707,0.321,0.564,0.532,�k��,5.8,��
2023/07/04,09:40,0.531,0.806,0.491,0.963,0.709,0.323,0.563,0.532,�k�k��,6.1,��
2023/07/04,09:50,0.531,0.806,0.490,0.966,0.707,0.324,0.564,0.532,�k�k��,5.2,�L
2023/07/04,10:00,0.530,0.807,0.489,0.966,0.709,0.323,0.565,0.533,�k�k��,5.5,��
2023/07/04,10:10,0.531,0.805,0.490,0.964,0.707,0.323,0.563,0.531,�k�k��,5.5,��
2023/07/04,10:20,0.532,0.805,0.490,0.964,0.708,0.325,0.565,0.532,�k�k��,5.8,��
2023/07/04,10:30,0.531,0.809,0.491,0.965,0.708,0.324,0.565,0.532,�k�k��,5.3,��
2023/07/04,10:40,0.532,0.808,0.491,0.964,0.708,0.324,0.565,0.532,�k�k��,5.6,��
2023/07/04,10:50,0.531,0.810,0.490,0.964,0.709,0.323,0.568,0.534,�k�k��,5.7,��
2023/07/04,11:00,0.532,0.809,0.490,0.964,0.708,0.325,0.566,0.532,�k,6.2,��
2023/07/04,11:10,0.532,0.806,0.490,0.964,0.709,0.323,0.566,0.531,�k,6.4,��
2023/07/04,11:20,0.533,0.807,0.487,0.963,0.709,0.324,0.565,0.532,�k,6.6,��
2023/07/04,11:30,0.531,0.808,0.490,0.964,0.708,0.324,0.565,0.532,�k,6.7,��
2023/07/04,11:40,0.533,0.811,0.490,0.964,0.709,0.325,0.565,0.531,�k,6.3,��
2023/07/04,11:50,0.534,0.810,0.489,0.963,0.707,0.325,0.565,0.530,�k,6.2,��
2023/07/04,12:00,0.532,0.809,0.488,0.963,0.707,0.325,0.565,0.532,�k�k��,6.1,��
2023/07/04,12:10,0.532,0.809,0.488,0.965,0.711,0.324,0.566,0.531,�k�k��,5.9,��
2023/07/04,12:20,0.533,0.812,0.488,0.964,0.710,0.323,0.566,0.532,�k�k��,6.3,��
2023/07/04,12:30,0.532,0.810,0.489,0.964,0.710,0.325,0.566,0.533,�k�k��,5.2,��
2023/07/04,12:40,0.531,0.809,0.489,0.966,0.710,0.325,0.566,0.532,�k,5.9,��
2023/07/04,12:50,0.533,0.810,0.488,0.964,0.709,0.323,0.565,0.534,�k,7.0,��
2023/07/04,13:00,0.532,0.811,0.488,0.964,0.710,0.324,0.566,0.533,�k,7.3,��
2023/07/04,13:10,0.534,0.812,0.489,0.966,0.710,0.325,0.566,0.534,�k,7.5,��
2023/07/04,13:20,0.535,0.810,0.487,0.967,0.709,0.323,0.566,0.533,�k,7.2,��
2023/07/04,13:30,0.533,0.810,0.491,0.962,0.709,0.325,0.567,0.534,�k�k��,6.6,��
2023/07/04,13:40,0.533,0.806,0.492,0.965,0.711,0.325,0.567,0.533,�k�k��,6.8,��
2023/07/04,13:50,0.535,0.806,0.493,0.966,0.712,0.325,0.568,0.533,�k�k��,6.7,��
2023/07/04,14:00,0.535,0.808,0.491,0.967,0.693,0.324,0.566,0.534,�k�k��,6.9,��
2023/07/04,14:10,0.535,0.811,0.490,0.967,0.698,0.325,0.567,0.533,�k,7.0,��
2023/07/04,14:20,0.535,0.809,0.491,0.966,0.699,0.325,0.566,0.533,�k,6.1,��
2023/07/04,14:30,0.536,0.809,0.492,0.967,0.703,0.325,0.567,0.534,�k�k��,6.3,��
2023/07/04,14:40,0.535,0.810,0.493,0.968,0.709,0.325,0.567,0.533,�k�k��,6.6,��
2023/07/04,14:50,0.536,0.811,0.492,0.968,0.710,0.325,0.568,0.534,�k�k��,6.0,��
2023/07/04,15:00,0.534,0.811,0.491,0.967,0.710,0.324,0.567,0.534,�k�k��,5.6,��
2023/07/04,15:10,0.535,0.809,0.493,0.965,0.712,0.325,0.567,0.533,�k�k��,5.6,��
2023/07/04,15:20,0.535,0.811,0.492,0.964,0.712,0.324,0.567,0.533,�k,5.6,��
2023/07/04,15:30,0.537,0.813,0.492,0.959,0.711,0.326,0.567,0.535,�k,6.1,��
2023/07/04,15:40,0.536,0.813,0.492,0.967,0.712,0.326,0.565,0.533,�k�k��,6.2,��
2023/07/04,15:50,0.538,0.811,0.492,0.968,0.712,0.325,0.567,0.533,�k�k��,6.0,��
2023/07/04,16:00,0.538,0.812,0.491,0.969,0.713,0.325,0.568,0.534,�k�k��,6.0,��
2023/07/04,16:10,0.537,0.810,0.491,0.966,0.713,0.325,0.567,0.535,�k�k��,5.8,��
2023/07/04,16:20,0.538,0.809,0.492,0.968,0.713,0.325,0.567,0.534,�k�k��,6.0,��
2023/07/04,16:30,0.537,0.812,0.492,0.968,0.711,0.324,0.566,0.534,�k�k��,6.3,��
2023/07/04,16:40,0.537,0.813,0.493,0.966,0.711,0.324,0.568,0.533,�k�k��,5.5,��
2023/07/04,16:50,0.535,0.813,0.491,0.968,0.712,0.325,0.567,0.534,�k�k��,5.7,��
2023/07/04,17:00,0.536,0.813,0.493,0.968,0.711,0.324,0.566,0.535,�k�k��,6.1,��
2023/07/04,17:10,0.535,0.813,0.492,0.969,0.710,0.325,0.568,0.533,�k�k��,6.1,��
2023/07/04,17:20,0.536,0.812,0.490,0.970,0.713,0.325,0.567,0.533,�k�k��,5.2,��
2023/07/04,17:30,0.535,0.812,0.492,0.969,0.713,0.326,0.566,0.534,�k�k��,4.5,��
2023/07/04,17:40,0.535,0.813,0.492,0.968,0.711,0.324,0.565,0.534,�k�k��,4.7,��
2023/07/04,17:50,0.536,0.809,0.492,0.968,0.711,0.327,0.566,0.537,�k,4.8,��
2023/07/04,18:00,0.535,0.812,0.492,0.969,0.713,0.325,0.566,0.536,�k�k��,4.6,��
2023/07/04,18:10,0.535,0.812,0.491,0.970,0.711,0.325,0.566,0.537,�k�k��,5.1,��
2023/07/04,18:20,0.536,0.811,0.492,0.971,0.713,0.326,0.565,0.536,�k�k��,4.2,��
2023/07/04,18:30,0.537,0.813,0.492,0.969,0.715,0.325,0.567,0.536,�k�k��,4.3,��
2023/07/04,18:40,0.537,0.813,0.493,0.969,0.713,0.325,0.568,0.536,�k,3.8,��
2023/07/04,18:50,0.538,0.814,0.492,0.969,0.713,0.325,0.566,0.536,�k�k��,3.5,��
2023/07/04,19:00,0.536,0.816,0.493,0.971,0.714,0.325,0.566,0.535,�k�k��,4.0,��
2023/07/04,19:10,0.537,0.814,0.495,0.969,0.713,0.325,0.567,0.536,�k,3.6,��
2023/07/04,19:20,0.538,0.815,0.493,0.971,0.713,0.325,0.567,0.535,�k�k��,2.6,��
2023/07/04,19:30,0.536,0.815,0.494,0.970,0.715,0.325,0.568,0.535,�k,2.9,��
2023/07/04,19:40,0.536,0.814,0.493,0.972,0.712,0.325,0.567,0.535,�k,2.9,��
2023/07/04,19:50,0.537,0.815,0.494,0.973,0.713,0.326,0.566,0.536,�k�k��,3.4,��
2023/07/04,20:00,0.538,0.815,0.493,0.971,0.715,0.325,0.568,0.536,�k�k��,3.4,��
2023/07/04,20:10,0.536,0.814,0.495,0.972,0.713,0.325,0.567,0.534,�k,3.2,��
2023/07/04,20:20,0.536,0.816,0.494,0.971,0.713,0.324,0.568,0.535,�k�k��,3.0,��
2023/07/04,20:30,0.536,0.815,0.494,0.969,0.715,0.325,0.569,0.537,�k,4.2,��
2023/07/04,20:40,0.537,0.815,0.493,0.972,0.714,0.325,0.567,0.537,�k�k��,3.5,��
2023/07/04,20:50,0.535,0.814,0.492,0.971,0.712,0.323,0.567,0.535,�k�k��,2.5,��
2023/07/04,21:00,0.536,0.814,0.491,0.971,0.715,0.325,0.568,0.535,�k�k��,2.3,��
2023/07/04,21:10,0.536,0.814,0.493,0.970,0.714,0.325,0.566,0.536,�k�k��,2.3,��
2023/07/04,21:20,0.535,0.815,0.493,0.970,0.713,0.324,0.568,0.535,�k�k��,2.3,��
2023/07/04,21:30,0.537,0.812,0.493,0.970,0.713,0.324,0.567,0.537,�k�k��,2.3,��
2023/07/04,21:40,0.534,0.813,0.493,0.973,0.713,0.324,0.569,0.535,�k��,1.7,��
2023/07/04,21:50,0.536,0.813,0.494,0.971,0.715,0.325,0.569,0.536,�k��,1.5,��
2023/07/04,22:00,0.537,0.814,0.494,0.974,0.714,0.325,0.567,0.534,�k�k��,1.5,��
2023/07/04,22:10,0.537,0.814,0.494,0.969,0.715,0.324,0.568,0.534,�k��,1.7,��
2023/07/04,22:20,0.537,0.813,0.494,0.970,0.714,0.325,0.569,0.535,�k�k��,1.2,��
2023/07/04,22:30,0.537,0.815,0.494,0.972,0.715,0.325,0.568,0.534,�k��,1.5,��
2023/07/04,22:40,0.535,0.815,0.494,0.971,0.716,0.325,0.568,0.536,�k��,1.2,��
2023/07/04,22:50,0.536,0.813,0.493,0.971,0.715,0.325,0.567,0.535,�k��,0.9,��
2023/07/04,23:00,0.535,0.815,0.494,0.973,0.714,0.324,0.569,0.536,�k��,0.8,��
2023/07/04,23:10,0.537,0.815,0.494,0.972,0.713,0.325,0.569,0.534,��,0.8,��
2023/07/04,23:20,0.538,0.813,0.494,0.971,0.714,0.326,0.568,0.535,���k��,0.9,��
2023/07/04,23:30,0.536,0.816,0.493,0.973,0.715,0.326,0.568,0.533,���쓌,0.8,��
2023/07/04,23:40,0.536,0.814,0.492,0.971,0.715,0.326,0.568,0.535,-,CALM,��
2023/07/04,23:50,0.536,0.815,0.494,0.972,0.715,0.325,0.569,0.535,-,CALM,��
